Weather History for Paynesville, MN

Change the Weather History Date:

Tuesday, November 5, 2013

  Actual Average (KLJF) Record (KLJF)
Temperature  
Mean Temperature 30 °F -  
Max Temperature 36 °F 44 °F 74 °F (1975)
Min Temperature 24 °F 28 °F 0 °F (1951)
Degree Days  
Heating Degree Days 35    
Moisture  
Dew Point 26 °F    
Average Humidity 80    
Maximum Humidity 96    
Minimum Humidity 52    
Precipitation  
Precipitation 0.00 in - - ()
Sea Level Pressure  
Sea Level Pressure 30.16 in    
Wind  
Wind Speed 2 mph (NW)    
Max Wind Speed 8 mph    
Max Gust Speed -    
Visibility 8 miles    
Events Snow    
Averages and records for this station are not official NWS values.
T = Trace of Precipitation, MM = Missing Value Source: NWS Daily Summary

Daily Weather History Graph

Daily Weather History Graph

Search for Another Location

Airport:

Trip Planner

Search our weather history database for the weather conditions in past years. The results will help you decide how hot, cold, wet, or windy it might be!

Date:

Astronomy

Nov. 05, 2013 Rise Set
Actual Time 7:04 AM CST 5:00 PM CST
Civil Twilight 6:32 AM CST 5:31 PM CST
Nautical Twilight 5:57 AM CST 6:06 PM CST
Astronomical Twilight 5:23 AM CST 6:41 PM CST
Moon 9:24 AM CST (11/5) 6:58 PM CST (11/5)
Length of Visible Light 10h 58m
Length of Day
9h 56m
Waxing Crescent, 7% of the Moon is Illuminated
Nov 5
Waxing Crescent
Nov 9
First Quarter
Nov 17
Full
Nov 25
Last Quarter
Dec 2
New

Hourly Weather History & Observations

Time (CST) Temp. Windchill Dew Point Humidity Pressure Visibility Wind Dir Wind Speed Gust Speed Precip Events Conditions
12:12 AM 33.1 °F - 27.0 °F 78% 30.14 in 10.0 mi Calm Calm - N/A   Clear
12:33 AM 30.9 °F 27.5 °F 26.1 °F 82% 30.14 in 10.0 mi West 3.5 mph - N/A   Clear
12:53 AM 30.0 °F 26.5 °F 25.5 °F 83% 30.15 in 10.0 mi WSW 3.5 mph - N/A   Clear
1:12 AM 29.8 °F - 25.3 °F 83% 30.15 in 10.0 mi Calm Calm - N/A   Clear
1:33 AM 28.8 °F - 25.2 °F 86% 30.15 in 10.0 mi Calm Calm - N/A   Clear
1:53 AM 28.4 °F - 25.7 °F 90% 30.15 in 10.0 mi Calm Calm - N/A   Clear
2:12 AM 28.6 °F - 25.5 °F 88% 30.16 in 10.0 mi Calm Calm - N/A   Clear
2:32 AM 28.8 °F - 25.5 °F 88% 30.16 in 10.0 mi Calm Calm - N/A   Clear
2:53 AM 30.2 °F - 25.0 °F 81% 30.16 in 10.0 mi Calm Calm - N/A   Clear
3:12 AM 28.6 °F - 24.8 °F 86% 30.16 in 10.0 mi Calm Calm - N/A   Clear
3:33 AM 25.3 °F 21.1 °F 22.8 °F 90% 30.17 in 10.0 mi West 3.5 mph - N/A   Clear
3:53 AM 24.1 °F - 22.3 °F 93% 30.17 in 10.0 mi Calm Calm - N/A   Clear
4:13 AM 26.6 °F - 24.8 °F 93% 30.17 in 10.0 mi Calm Calm - N/A   Clear
4:33 AM 24.1 °F - 21.9 °F 91% 30.18 in 10.0 mi Calm Calm - N/A   Clear
4:53 AM 25.7 °F 20.1 °F 24.1 °F 94% 30.18 in 7.0 mi WNW 4.6 mph - N/A   Clear
5:12 AM 25.7 °F 21.5 °F 23.2 °F 90% 30.18 in 10.0 mi West 3.5 mph - N/A   Clear
5:32 AM 26.4 °F - 23.2 °F 88% 30.18 in 10.0 mi Calm Calm - N/A   Clear
5:53 AM 27.7 °F - 24.4 °F 88% 30.17 in 10.0 mi Calm Calm - N/A   Scattered Clouds
6:13 AM 28.2 °F 24.4 °F 24.6 °F 86% 30.18 in 10.0 mi SW 3.5 mph - N/A   Scattered Clouds
6:32 AM 28.8 °F - 24.8 °F 85% 30.18 in 10.0 mi Calm Calm - N/A   Clear
6:52 AM 29.3 °F 25.6 °F 24.8 °F 83% 30.19 in 10.0 mi South 3.5 mph - N/A   Scattered Clouds
7:13 AM 29.1 °F - 24.3 °F 82% 30.20 in 10.0 mi Calm Calm - N/A   Scattered Clouds
7:33 AM 29.7 °F - 24.1 °F 80% 30.19 in 10.0 mi Calm Calm - N/A   Scattered Clouds
7:52 AM 30.0 °F - 24.6 °F 80% 30.19 in 10.0 mi Calm Calm - N/A   Mostly Cloudy
8:13 AM 30.9 °F - 25.7 °F 81% 30.20 in 10.0 mi Calm Calm - N/A   Overcast
8:33 AM 32.0 °F - 24.6 °F 74% 30.20 in 10.0 mi Calm Calm - N/A   Overcast
8:53 AM 32.0 °F - 25.3 °F 76% 30.20 in 10.0 mi Calm Calm - N/A   Overcast
9:13 AM 32.0 °F - 25.0 °F 75% 30.21 in 10.0 mi Calm Calm - N/A   Overcast
9:32 AM 32.9 °F - 25.7 °F 75% 30.22 in 10.0 mi Calm Calm - N/A   Overcast
9:53 AM 34.0 °F 31.0 °F 23.7 °F 66% 30.23 in 10.0 mi SW 3.5 mph - N/A   Overcast
10:13 AM 34.3 °F 31.4 °F 24.1 °F 66% 30.24 in 10.0 mi South 3.5 mph - N/A   Overcast
10:33 AM 34.7 °F 31.8 °F 22.5 °F 61% 30.23 in 10.0 mi SSW 3.5 mph - N/A   Overcast
10:52 AM 35.6 °F 31.7 °F 22.5 °F 59% 30.25 in 10.0 mi SW 4.6 mph - N/A   Overcast
11:13 AM 36.0 °F 31.1 °F 22.5 °F 58% 30.25 in 10.0 mi WSW 5.8 mph - N/A   Overcast
11:33 AM 36.5 °F 31.8 °F 23.4 °F 59% 30.24 in 10.0 mi West 5.8 mph - N/A   Overcast
11:52 AM 36.7 °F 32.0 °F 22.8 °F 57% 30.24 in 10.0 mi WNW 5.8 mph - N/A   Overcast
12:13 PM 36.7 °F 32.9 °F 22.3 °F 56% 30.22 in 10.0 mi NW 4.6 mph - N/A   Overcast
12:32 PM 36.5 °F 31.8 °F 22.8 °F 58% 30.21 in 10.0 mi NW 5.8 mph - N/A   Overcast
12:52 PM 36.5 °F 32.7 °F 21.2 °F 54% 30.20 in 10.0 mi NW 4.6 mph - N/A   Overcast
1:12 PM 36.5 °F 31.8 °F 20.3 °F 52% 30.18 in 10.0 mi NNW 5.8 mph - N/A   Overcast
1:33 PM 36.3 °F 30.1 °F 23.0 °F 59% 30.18 in 10.0 mi NNW 8.1 mph - N/A   Overcast
1:53 PM 36.3 °F 30.8 °F 21.4 °F 55% 30.16 in 10.0 mi NNW 6.9 mph - N/A   Overcast
2:13 PM 36.5 °F 31.8 °F 22.1 °F 56% 30.14 in 10.0 mi North 5.8 mph - N/A   Overcast
2:33 PM 36.1 °F 32.3 °F 20.7 °F 53% 30.13 in 10.0 mi North 4.6 mph - N/A   Overcast
2:52 PM 35.8 °F 31.9 °F 21.2 °F 55% 30.13 in 10.0 mi North 4.6 mph - N/A   Overcast
3:13 PM 35.6 °F 32.8 °F 22.3 °F 58% 30.13 in 10.0 mi North 3.5 mph - N/A   Overcast
3:33 PM 35.6 °F - 23.2 °F 61% 30.14 in 10.0 mi Calm Calm - N/A   Overcast
3:52 PM 35.6 °F - 23.0 °F 60% 30.14 in 10.0 mi Calm Calm - N/A   Overcast
4:13 PM 33.8 °F - 25.5 °F 72% 30.15 in 3.0 mi Calm Calm - N/A Snow Light Snow
4:32 PM 32.4 °F - 27.5 °F 82% 30.13 in 1.5 mi Calm Calm - N/A Snow Light Snow
4:53 PM 32.0 °F - 29.3 °F 90% 30.13 in 2.0 mi Calm Calm - N/A Snow Light Snow
5:13 PM 31.6 °F - 29.7 °F 92% 30.12 in 1.8 mi Calm Calm - N/A Snow Light Snow
5:33 PM 31.6 °F - 30.2 °F 94% 30.11 in 1.8 mi Calm Calm - N/A Snow Light Snow
5:53 PM 31.5 °F - 30.2 °F 95% 30.11 in 2.0 mi Calm Calm - N/A Snow Light Snow
6:12 PM 31.5 °F - 30.2 °F 95% 30.11 in 2.0 mi Calm Calm - N/A Snow Light Snow
6:33 PM 31.5 °F - 30.2 °F 95% 30.11 in 2.0 mi Calm Calm - N/A Snow Light Snow
6:53 PM 31.5 °F - 30.2 °F 95% 30.11 in 2.0 mi Calm Calm - N/A Snow Light Snow
7:13 PM 31.5 °F 28.1 °F 30.2 °F 95% 30.10 in 3.0 mi NNE 3.5 mph - N/A Snow Light Snow
7:32 PM 31.1 °F 26.4 °F 30.2 °F 96% 30.10 in 4.0 mi North 4.6 mph - N/A Snow Light Snow
7:52 PM 31.1 °F - 29.7 °F 94% 30.10 in 4.0 mi Calm Calm - N/A Snow Light Snow
8:13 PM 31.5 °F - 29.1 °F 91% 30.09 in 7.0 mi Calm Calm - N/A Snow Light Snow
8:32 PM 31.8 °F 27.3 °F 28.4 °F 87% 30.09 in 3.0 mi North 4.6 mph - N/A Snow Light Snow
8:52 PM 31.1 °F 27.7 °F 28.8 °F 91% 30.09 in 2.0 mi North 3.5 mph - N/A Snow Light Snow
9:12 PM 30.9 °F 27.5 °F 28.9 °F 92% 30.09 in 4.0 mi North 3.5 mph - N/A Snow Light Snow
9:33 PM 30.9 °F 27.5 °F 29.3 °F 94% 30.10 in 2.5 mi North 3.5 mph - N/A Snow Light Snow
9:53 PM 30.7 °F 27.3 °F 29.3 °F 94% 30.10 in 2.5 mi NNW 3.5 mph - N/A Snow Light Snow
10:13 PM 30.7 °F - 29.3 °F 94% 30.10 in 2.5 mi Calm Calm - N/A Snow Light Snow
10:32 PM 30.6 °F 27.1 °F 28.9 °F 94% 30.09 in 7.0 mi North 3.5 mph - N/A Snow Light Snow
10:53 PM 30.7 °F - 28.6 °F 92% 30.09 in 10.0 mi Calm Calm - N/A   Overcast
11:13 PM 30.7 °F - 28.4 °F 91% 30.09 in 10.0 mi Calm Calm - N/A   Overcast
11:33 PM 30.7 °F - 28.4 °F 91% 30.08 in 10.0 mi Calm Calm - N/A   Overcast
11:52 PM 30.7 °F - 28.4 °F 91% 30.08 in 10.0 mi Calm Calm - N/A   Overcast